• en Belgique
  • Liste des pays
  • À 7 jours
  • Température de l'eau
  • Carte satellitaire
  • Carte météo
  • Widgets météo
  • user-avatar
    Se connecter

    Météo par heure à Fier

    Ce jour, 22 Septembre, Vendredi

    Heure Température Précipitation Vent Pression Humidité
    00:00 +14°C° 0 mm 3 m/s 762 mmHg 80%
    01:00 +14°C° 0 mm 3 m/s 762 mmHg 80%
    02:00 +14°C° 0 mm 3 m/s 763 mmHg 80%
    03:00 +13°C° 0 mm 3 m/s 763 mmHg 79%
    04:00 +13°C° 0 mm 3 m/s 763 mmHg 79%
    05:00 +14°C° 0 mm 3 m/s 763 mmHg 75%
    06:00 +16°C° 0 mm 3 m/s 763 mmHg 71%
    07:00 +17°C° 0 mm 3 m/s 763 mmHg 68%
    08:00 +19°C° 0 mm 3 m/s 763 mmHg 58%
    09:00 +20°C° 0 mm 3 m/s 763 mmHg 49%
    10:00 +22°C° 0 mm 3 m/s 763 mmHg 40%
    11:00 +22°C° 0 mm 4 m/s 763 mmHg 38%
    12:00 +23°C° 0 mm 5 m/s 763 mmHg 37%
    13:00 +23°C° 0 mm 5 m/s 763 mmHg 36%
    14:00 +23°C° 0 mm 5 m/s 763 mmHg 38%
    15:00 +22°C° 0 mm 5 m/s 763 mmHg 40%
    16:00 +21°C° 0 mm 5 m/s 763 mmHg 42%
    17:00 +20°C° 0 mm 4 m/s 763 mmHg 49%
    18:00 +18°C° 0 mm 4 m/s 764 mmHg 55%
    19:00 +16°C° 0 mm 3 m/s 764 mmHg 61%
    20:00 +16°C° 0 mm 3 m/s 764 mmHg 63%
    21:00 +16°C° 0 mm 2 m/s 764 mmHg 64%
    22:00 +15°C° 0 mm 2 m/s 765 mmHg 65%
    23:00 +15°C° 0 mm 2 m/s 765 mmHg 65%

    Demain, 23 Septembre, Samedi

    Heure Température Précipitation Vent Pression Humidité
    00:00 +15°C° 0 mm 2 m/s 765 mmHg 65%
    01:00 +15°C° 0 mm 2 m/s 765 mmHg 65%
    02:00 +15°C° 0 mm 2 m/s 765 mmHg 65%
    03:00 +14°C° 0 mm 2 m/s 765 mmHg 65%
    04:00 +14°C° 0 mm 2 m/s 764 mmHg 65%
    05:00 +15°C° 0 mm 2 m/s 765 mmHg 62%
    06:00 +16°C° 0 mm 2 m/s 765 mmHg 58%
    07:00 +17°C° 0 mm 2 m/s 765 mmHg 55%
    08:00 +19°C° 0 mm 2 m/s 765 mmHg 49%
    09:00 +23°C° 0 mm 2 m/s 765 mmHg 42%
    10:00 +25°C° 0 mm 1 m/s 765 mmHg 35%
    11:00 +25°C° 0 mm 2 m/s 764 mmHg 34%
    12:00 +26°C° 0 mm 2 m/s 764 mmHg 33%
    13:00 +27°C° 0 mm 3 m/s 764 mmHg 31%
    14:00 +26°C° 0 mm 3 m/s 763 mmHg 34%
    15:00 +26°C° 0 mm 3 m/s 763 mmHg 37%
    16:00 +25°C° 0 mm 3 m/s 763 mmHg 39%
    17:00 +23°C° 0 mm 2 m/s 763 mmHg 46%
    18:00 +21°C° 0 mm 2 m/s 763 mmHg 54%
    19:00 +19°C° 0 mm 2 m/s 763 mmHg 61%
    20:00 +18°C° 0 mm 2 m/s 764 mmHg 61%
    21:00 +19°C° 0 mm 1 m/s 764 mmHg 61%
    22:00 +19°C° 0 mm 1 m/s 764 mmHg 61%
    23:00 +18°C° 0 mm 1 m/s 764 mmHg 60%

    Après-demain, 24 Septembre, Dimanche

    Heure Température Précipitation Vent Pression Humidité
    00:00 +18°C° 0 mm 1 m/s 763 mmHg 59%
    01:00 +18°C° 0 mm 1 m/s 763 mmHg 58%
    02:00 +18°C° 0 mm 1 m/s 763 mmHg 57%
    03:00 +18°C° 0 mm 1 m/s 763 mmHg 56%
    04:00 +16°C° 0 mm 1 m/s 763 mmHg 56%
    05:00 +18°C° 0 mm 1 m/s 763 mmHg 53%
    06:00 +19°C° 0 mm 1 m/s 763 mmHg 50%
    07:00 +19°C° 0 mm 2 m/s 763 mmHg 47%
    08:00 +22°C° 0 mm 1 m/s 763 mmHg 41%
    09:00 +24°C° 0 mm 1 m/s 763 mmHg 35%
    10:00 +27°C° 0 mm 1 m/s 763 mmHg 30%
    11:00 +27°C° 0 mm 1 m/s 762 mmHg 29%
    12:00 +27°C° 0 mm 1 m/s 762 mmHg 28%
    13:00 +28°C° 0 mm 2 m/s 762 mmHg 27%
    14:00 +27°C° 0 mm 2 m/s 762 mmHg 29%
    15:00 +27°C° 0 mm 2 m/s 761 mmHg 32%
    16:00 +26°C° 0 mm 2 m/s 761 mmHg 35%
    17:00 +24°C° 0 mm 1 m/s 762 mmHg 40%
    18:00 +23°C° 0 mm 1 m/s 762 mmHg 46%
    19:00 +21°C° 0 mm 1 m/s 762 mmHg 51%
    20:00 +21°C° 0 mm 1 m/s 762 mmHg 52%
    21:00 +20°C° 0 mm 1 m/s 762 mmHg 53%
    22:00 +20°C° 0 mm 1 m/s 762 mmHg 54%
    23:00 +19°C° 0 mm 1 m/s 762 mmHg 53%

    25 Septembre, Lundi

    Heure Température Précipitation Vent Pression Humidité
    00:00 +18°C° 0 mm 2 m/s 762 mmHg 53%
    01:00 +18°C° 0 mm 2 m/s 762 mmHg 52%
    02:00 +18°C° 0 mm 2 m/s 762 mmHg 52%
    03:00 +18°C° 0 mm 2 m/s 762 mmHg 52%
    04:00 +17°C° 0 mm 2 m/s 762 mmHg 53%
    05:00 +18°C° 0 mm 2 m/s 762 mmHg 51%
    06:00 +19°C° 0 mm 2 m/s 762 mmHg 50%
    07:00 +20°C° 0 mm 2 m/s 762 mmHg 49%
    08:00 +23°C° 0 mm 2 m/s 762 mmHg 43%
    09:00 +26°C° 0 mm 2 m/s 762 mmHg 37%
    10:00 +28°C° 0 mm 1 m/s 762 mmHg 31%
    11:00 +28°C° 0 mm 2 m/s 762 mmHg 30%
    12:00 +29°C° 0 mm 2 m/s 761 mmHg 29%
    13:00 +29°C° 0 mm 3 m/s 761 mmHg 28%
    14:00 +29°C° 0 mm 3 m/s 761 mmHg 32%
    15:00 +28°C° 0 mm 3 m/s 761 mmHg 35%
    16:00 +27°C° 0 mm 3 m/s 761 mmHg 39%
    17:00 +25°C° 0 mm 2 m/s 761 mmHg 46%
    18:00 +23°C° 0 mm 2 m/s 761 mmHg 53%
    19:00 +21°C° 0 mm 1 m/s 762 mmHg 60%
    20:00 +21°C° 0 mm 1 m/s 762 mmHg 60%
    21:00 +20°C° 0 mm 2 m/s 762 mmHg 60%
    22:00 +19°C° 0 mm 2 m/s 762 mmHg 61%
    23:00 +19°C° 0 mm 2 m/s 762 mmHg 60%

    26 Septembre, Mardi

    Heure Température Précipitation Vent Pression Humidité
    00:00 +19°C° 0 mm 2 m/s 762 mmHg 59%
    01:00 +19°C° 0 mm 2 m/s 762 mmHg 59%
    02:00 +19°C° 0 mm 2 m/s 762 mmHg 59%
    03:00 +19°C° 0 mm 2 m/s 761 mmHg 59%
    04:00 +19°C° 0 mm 2 m/s 761 mmHg 59%
    05:00 +19°C° 0 mm 2 m/s 761 mmHg 57%
    06:00 +20°C° 0 mm 2 m/s 761 mmHg 55%
    07:00 +21°C° 0 mm 2 m/s 761 mmHg 53%
    08:00 +24°C° 0 mm 2 m/s 762 mmHg 47%
    09:00 +26°C° 0 mm 2 m/s 762 mmHg 41%
    10:00 +28°C° 0 mm 1 m/s 762 mmHg 35%
    11:00 +29°C° 0 mm 2 m/s 761 mmHg 33%
    12:00 +29°C° 0 mm 3 m/s 761 mmHg 32%
    13:00 +30°C° 0 mm 3 m/s 761 mmHg 30%
    14:00 +29°C° 0 mm 3 m/s 761 mmHg 34%
    15:00 +28°C° 0 mm 3 m/s 761 mmHg 39%
    16:00 +28°C° 0 mm 3 m/s 760 mmHg 43%
    17:00 +26°C° 0,1 mm 3 m/s 761 mmHg 52%
    18:00 +24°C° 0,1 mm 2 m/s 761 mmHg 61%
    19:00 +22°C° 0,1 mm 1 m/s 761 mmHg 69%
    20:00 +21°C° 0 mm 2 m/s 761 mmHg 70%
    21:00 +20°C° 0 mm 2 m/s 761 mmHg 70%
    22:00 +20°C° 0 mm 2 m/s 762 mmHg 71%
    23:00 +20°C° 0 mm 2 m/s 762 mmHg 70%

    27 Septembre, Mercredi

    Heure Température Précipitation Vent Pression Humidité
    00:00 +20°C° 0 mm 2 m/s 762 mmHg 69%
    01:00 +19°C° 0 mm 2 m/s 762 mmHg 68%
    02:00 +19°C° 0 mm 2 m/s 762 mmHg 67%
    03:00 +19°C° 0 mm 2 m/s 762 mmHg 66%
    04:00 +19°C° 0 mm 2 m/s 762 mmHg 65%
    05:00 +20°C° 0,2 mm 3 m/s 762 mmHg 62%
    06:00 +20°C° 0,2 mm 3 m/s 762 mmHg 58%
    07:00 +21°C° 0,2 mm 3 m/s 762 mmHg 55%
    08:00 +24°C° 0,1 mm 3 m/s 762 mmHg 50%
    09:00 +26°C° 0,1 mm 3 m/s 762 mmHg 44%
    10:00 +28°C° 0,1 mm 2 m/s 762 mmHg 38%
    11:00 +28°C° 0,1 mm 3 m/s 762 mmHg 40%
    12:00 +28°C° 0,1 mm 3 m/s 762 mmHg 41%
    13:00 +27°C° 0,1 mm 3 m/s 762 mmHg 42%
    14:00 +27°C° 0,1 mm 2 m/s 762 mmHg 46%
    15:00 +26°C° 0,1 mm 2 m/s 761 mmHg 51%
    16:00 +25°C° 0,1 mm 2 m/s 761 mmHg 56%
    17:00 +24°C° 0 mm 2 m/s 761 mmHg 60%
    18:00 +23°C° 0 mm 2 m/s 762 mmHg 63%
    19:00 +21°C° 0 mm 2 m/s 762 mmHg 67%
    20:00 +21°C° 0 mm 2 m/s 762 mmHg 68%
    21:00 +20°C° 0 mm 2 m/s 762 mmHg 68%
    22:00 +20°C° 0 mm 2 m/s 762 mmHg 68%
    23:00 +20°C° 0 mm 2 m/s 762 mmHg 69%
    Voir plus